Skip Navigation Links
NOAA logo - Click to go to the NOAA homepage
NOAA's National Weather Service
Alaska Aviation Weather Unit
  NWS logo - Click to go to the NWS homepage
Left Navbar Graphic     03 AKDT = 11 GMT

   
NOAA is celebrating 200 years of science, service, and stewardship. Visit the NOAA 200th celebration Web site to learn more.
USA.gov is the U.S. Government's official Web portal to all Federal, state and local government Web resources and services.
Facebook
NWS on Facebook

Important Change Regarding the AAWU Web Presence

 

Over the last several months, the AAWU has been working to navigate its webpages to a nationally supported server. Security, as well as other needs, have necessitated the change.  We have been given an extension for the site changeover while we diligently work at addressing feedback received. As of July 14, 2017, aawu.arh.noaa.gov will be discontinued. The new AAWU web address is weather.gov/aawu. It is now live and will run in-parallel with the old site until it is discontinued on July 14, 2017. Please continue to send any feedback or questions regarding the new webpages to nws.ar.aawu.webauthors@noaa.gov.  Thank you for your patience during this time of transition.
AAWU Home :: Display TAF Add Bookmark
METAR PAFM 230556Z AUTO 22005KT 10SM SCT013 SCT018 OVC046 07/06 A2971
     RMK AO2 RAE46 SLP075 6//// T00720061 10094 20072 53004 PNO
     $=

METAR PAFM 230656Z AUTO 22006KT 10SM BKN050 BKN060 07/06 A2971 RMK
 AO2 SLP075 T00670056 PNO $=

METAR PAFM 230756Z AUTO 20004KT 10SM OVC038 06/06 A2971 RMK AO2 SLP076
     T00610056 400940061 PNO $=

METAR PAFM 230856Z AUTO 21005KT 3SM -RA BR OVC005 06/06 A2971 RMK
 AO2 RAB25 CIG 005V009 SLP074 6//// T00610061 58000 PNO $=

SPECI PAFM 230943Z AUTO 20005KT 8SM -RA OVC003 06/06 A2970 RMK AO2 PNO
     $=

METAR PAFM 230956Z AUTO 19006KT 9SM -RA OVC003 06/06 A2971 RMK AO2
     SLP074 T00610061 PNO $=

METAR PAFM 231056Z AUTO 20005KT 10SM -RA OVC003 06/06 A2970 RMK AO2
 SLP073 T00610056 PNO $=


NOAA's National Weather Service
Alaska Aviation Weather Unit
6930 Sand Lake Road
Anchorage, AK 99502-1845
Disclaimer
Credits
Glossary
Privacy Policy
About Us
Career Opportunities
Contact AAWU Internet Services Site last modified: April, 17th 2012